Terug naar catalogus

YUNHAI 1-03

ActiefWetenschapSSO
NORAD 53877·PAYLOAD·🇨🇳 China

Gelanceerd Sep 20, 2022 vanaf Jiuquan Satellite Launch Center

Loading…

Volgende Passages (komende 24 uur)

TLE

VersSource: Space-Track

Epoch: Sep 15, 2026, 00:02 UTC

1 53877U 22115A   26258.00174419  .00000257  00000-0  11078-3 0  9994
2 53877  98.5604 255.0260 0005299 124.9262 235.2421 14.32543961208372

Volg YUNHAI 1-03 in realtime met AllMySat

Download on the App Store